Preview of NWS' New Version of Forecast
This preview is not operational and should not be used for support decisions.

Regional Weather Roundup (RWR)

Issued by National Weather Service (NWS)

                            
000
ASUS42 KTBW 201217
RWRFL 
FLORIDA REGIONAL WEATHER ROUNDUP
NATIONAL WEATHER SERVICE TAMPA BAY RUSKIN FL
800 AM EDT WED MAR 20 2019

NOTE: "FAIR" INDICATES FEW OR NO CLOUDS BELOW 12,000 FEET WITH NO
SIGNIFICANT WEATHER AND/OR OBSTRUCTIONS TO VISIBILITY.

FLZ001>010-012>015-112-114-115-201300-
PANHANDLE FLORIDA
  
CITY           SKY/WX    TMP DP  RH WIND       PRES   REMARKS
PENSACOLA      FAIR      49  39  68 NE7       30.20R                  
PENSACOLA NAS  FAIR      43  39  86 N6        30.20R WCI  39          
MILTON NAS     FAIR      38  36  92 NE5       30.21R WCI  34          
CRESTVIEW      FAIR      36  34  92 CALM      30.23R                  
DUKE FIELD     FAIR      35  34  93 CALM      30.21R                  
MARY ESTHER    CLEAR     45  37  73 NE7       30.20R WCI  41          
PANAMA CITY    FAIR      46  40  79 NE6       30.19R WCI  43          
TYNDALL AFB    FAIR      49  41  74 NE7       30.20R                  
APALACHICOLA   FAIR      47  39  74 NE10      30.18R WCI  42          

STATION/POSITION SKY/WX   TEMP    WIND        PRES    WAVE   SWELL
                          AIR SEA DIR/SP/G            HT/PER HT/PER
                          (F)     (DEG/KT/KT) (MB)    (FT/S) (FT/S)
30.1N   87.6W                                 1022.3R   2/ 4
29.2N   88.2W                      30/ 12/ 14 1021.7R   3/ 4   2/ 6
PANAMA CITY BEAC           51 63   60/  6/ 10 1022.8R
TOWER C                    58      60/ 19/ 20 1021.6R

$$
FLZ011-016>038-118-127-128-134-139-239-201300-
NORTH FLORIDA
  
CITY           SKY/WX    TMP DP  RH WIND       PRES   REMARKS
MARIANNA       FAIR      42  39  89 NE3       30.22R                  
TALLAHASSEE    FAIR      48  36  63 N6        30.20R                  
PERRY          CLOUDY    50  37  59 NE6       30.18S                  
LIVE OAK       MOCLDY    48  36  61 N6        30.18R                  
CROSS CITY     CLOUDY    54  40  60 NE8       30.15R                  
LAKE CITY      CLOUDY    50  37  62 N5        30.17R                  
GAINESVILLE    CLOUDY    56  42  59 N7        30.16R                  
WILLISTON        N/A    N/A N/A N/A MISG        N/A                   
PALATKA        MOCLDY   N/A N/A N/A NE6       30.13R                  
MAYPORT NAS    CLOUDY    57  49  74 N13       30.15R                  
JACKSONVILLE   MOCLDY    52  40  63 N7        30.16R                  
JAX NAS        CLOUDY    56  44  64 N17       30.16R                  
JAX CECIL      CLOUDY   N/A N/A N/A N8        30.16R                  
FERNANDINA BEA CLOUDY    53  44  73 N7        30.16S                  
ST AUGUSTINE   CLOUDY    59  49  69 N16G22    30.14R                  
PALM COAST     MOCLDY    59  48  67 N12G20    30.11R                  

STATION/POSITION SKY/WX   TEMP    WIND        PRES    WAVE   SWELL
                          AIR SEA DIR/SP/G            HT/PER HT/PER
                          (F)     (DEG/KT/KT) (MB)    (FT/S) (FT/S)
SHELL POINT      NOT AVBL
KEATON BEACH               50      40/  9/ 13 1021.2R
CEDAR KEY                  55      40/  7/  9 1019.7R
FERNANDINA                 54 62  340/  5/ 10 1022.2R
30.7N   81.3W                 62                N/A     6/ 9   2/11
MAYPORT                    58 62   20/ 15/ 18 1021.0R
31.4N   80.9W              56 61   20/ 17/ 21 1020.7R   6/10   3/10
ST AUGUSTINE               60 62   10/ 22/ 24 1020.1R

$$
FLZ040-043>046-052-053-057-058-063-144-201300-
INTERIOR CENTRAL FLORIDA
  
CITY           SKY/WX    TMP DP  RH WIND       PRES   REMARKS
OCALA          MOCLDY    56  44  64 NE7       30.13R                  
LEESBURG       MOCLDY    57  46  66 N10       30.10S                  
SANFORD        MOCLDY    59  53  80 N10       30.07S                  
ORLANDO EXEC   CLOUDY    59  55  87 N8        30.07S                  
ORLANDO INTL   MOCLDY    58  55  90 N9        30.08R                  
KISSIMMEE      CLOUDY    59  57  93 N6        30.09R                  
WINTER HAVEN   CLOUDY    59  54  83 NE10      30.09R                  
LAKELAND       MOCLDY    57  54  88 NE12G20   30.07S                  
BARTOW         CLOUDY    59  55  88 NE14      30.07R                  
SEBRING        CLOUDY    60  60  97 N10       30.05R                  
OKEECHOBEE     CLOUDY    61  61 100 CALM      30.02R                  

$$
FLZ041-047-054-059-064-141-147-201300-
EAST CENTRAL FLORIDA
  
CITY           SKY/WX    TMP DP  RH WIND       PRES   REMARKS
ORMOND BEACH   CLEAR     59  48  67 N14       30.09R                  
DAYTONA BEACH  FAIR      61  52  72 N15       30.09R                  
DELAND         FAIR      57  50  77 N7        30.09R                  
NEW SMYRNA BEA PTCLDY    63  54  72 NE17G24   30.09R                  
JFK SPACE CTR  HVY RAIN  62  60  92 N5        30.05F                  
TITUSVILLE     LGT RAIN  64  63  94 NE12      30.07R                  
CAPE CANAVERAL FAIR      63  57  82 N7        30.03R                  
PATRICK AFB    FAIR      65  65  99 NE13      30.03R                  
MELBOURNE      MOCLDY    65  60  84 N12       30.02S                  
VERO BEACH     MOCLDY    66  61  84 N6        30.01R                  
FT PIERCE      LGT RAIN  65  61  87 NE6       30.00S                  
STUART         HVY RAIN  66  64  94 N9        30.00R                  

STATION/POSITION SKY/WX   TEMP    WIND        PRES    WAVE   SWELL
                          AIR SEA DIR/SP/G            HT/PER HT/PER
                          (F)     (DEG/KT/KT) (MB)    (FT/S) (FT/S)
28.5N   80.2W              69      50/ 16/ 19 1016.8R   9/10   7/10
28.9N   78.5W              69 74   30/ 21/ 27 1016.8R   9/10   7/10
TRIDENT PIER               63 67  350/  4/  6 1018.4R
28.4N   80.5W                 66                N/A     5/10   2/11
27.5N   80.2W                 69                N/A     7/11   2/11

$$
FLZ050-056-061-142-242-148-248-149-249-151-251-155-255-
160-260-201300-
WEST CENTRAL FLORIDA
  
CITY           SKY/WX    TMP DP  RH WIND       PRES   REMARKS
CRYSTAL RIVER  MOCLDY    55  45  67 NE7       30.11S                  
INVERNESS      CLOUDY    57  46  67 NE9       30.11S                  
BROOKSVILLE    CLOUDY    57  46  66 NE9       30.10R                  
CLEARWATER AIR FAIR      55  46  71 NE7       30.08R                  
ST PETE CLEARW CLOUDY    60  51  72 NE13      30.08R                  
TAMPA INTL     MOCLDY    60  50  69 NE7       30.08R                  
TAMPA EXEC     CLOUDY    59  52  77 NE5       30.09R                  
PLANT CITY     CLOUDY    61  55  82 NE7       30.09S                  
MACDILL AFB    CLOUDY    60  52  75 NE10      30.07R                  
PETER O KNIGHT CLOUDY    61  54  77 NE14      30.08R                  
ST PETERSBURG  CLOUDY    62  55  77 NE21      30.06R                  
SARASOTA       CLOUDY    61  54  77 NE13      30.04R                  
VENICE         CLOUDY    61  57  88 NE12      30.06R                  

STATION/POSITION SKY/WX   TEMP    WIND        PRES    WAVE   SWELL
                          AIR SEA DIR/SP/G            HT/PER HT/PER
                          (F)     (DEG/KT/KT) (MB)    (FT/S) (FT/S)
27.3N   84.2W                 72                N/A     6/ 7
CLEARWATER BEACH           59 68   30/ 10/ 15 1018.5R
MIDDLE TAMPA BAY           62      60/ 20/ 23 1018.2R
VENICE                     59 72   30/  9/ 13 1017.5R

$$
FLZ066-069-070-075>078-162-262-165-265-201300-
SOUTHWEST FLORIDA AND KEYS
  
CITY           SKY/WX    TMP DP  RH WIND       PRES   REMARKS
PUNTA GORDA    MOCLDY    59  57  93 NE10      30.06R                  
FT MYERS       CLOUDY    60  58  92 N9        30.02R                  
SOUTHWEST INTL CLOUDY    60  58  92 N7        30.03R                  
NAPLES         CLOUDY   N/A N/A N/A NE13      30.01R                  
MARCO ISLAND   CLOUDY    61  60  97 N10       30.02R                  
IMMOKALEE      CLOUDY    61  61 100 N8        30.01R                  
MARATHON       MOCLDY    70  65  84 N12       29.95R                  
KEY WEST NAS   FAIR      70  66  87 NE13      29.97R                  
KEY WEST INTL  FAIR      70  66  87 NE8G18    29.97R                  

STATION/POSITION SKY/WX   TEMP    WIND        PRES    WAVE   SWELL
                          AIR SEA DIR/SP/G            HT/PER HT/PER
                          (F)     (DEG/KT/KT) (MB)    (FT/S) (FT/S)
NAPLES                     61 72   50/  7/ 12 1016.1R
26.0N   85.6W              71 79   40/ 17/ 21 1017.6R   5/ 6   2/11
DRY TORTUGAS               70      40/ 19/ 20 1015.5R
SAND KEY                   71                 1014.8R
SOMBRERO KEY               69                 1013.7R

$$
FLZ067-068-071>074-168-172>174-201300-
SOUTHEAST FLORIDA 
  
CITY           SKY/WX    TMP DP  RH WIND       PRES   REMARKS
W PALM BEACH   CLOUDY    62  61  96 NW8       29.99R                  
BOCA RATON     CLOUDY    63  61  94 N12       29.98R                  
FT LAUDER-EXEC MOCLDY    63  63 100 NW6       29.98R                  
FT LAUDERDALE  MOCLDY    65  62  90 NW8       29.97R                  
POMPANO BEACH  MOCLDY    63  61  93 NW9       29.97R                  
PEMBROKE PINES MOCLDY    62  61  96 N12       30.00R                  
OPA LOCKA      CLOUDY    64  61  90 N12       29.99R                  
MIAMI          CLOUDY    64  63  96 N9        29.98S                  
WEST KENDALL   CLOUDY    64  62  93 N12       29.98R                  
HOMESTEAD      MOCLDY    63  61  93 NW14      29.96R                  

STATION/POSITION SKY/WX   TEMP    WIND        PRES    WAVE   SWELL
                          AIR SEA DIR/SP/G            HT/PER HT/PER
                          (F)     (DEG/KT/KT) (MB)    (FT/S) (FT/S)
VIRGINIA KEY               64 75  320/  6/ 11 1014.2R
LAKE WORTH                 62 76  310/  8/ 11 1016.0R
FOWEY ROCKS                66 77  340/ 19/ 20 1015.3R
SETTLEMENT POINT           71     310/  2/  2 1014.2R

$$